Location: Angwan Shehu
(11.2514°N, 7.4613°E)
Time: 21:08:53
(UTC+00:00)

N. Korean satellite - Pass Details

Date: 11 March 2021
Orbit: 452 x 499 km, 97.2° (Epoch: 15 April)

Event Time Altitude Azimuth Distance (km) Brightness Sun altitude
Rises 05:05:27 0° 354° (N) 2,560 10.2 -9.2°
Reaches altitude 10° 05:07:43 10° 342° (NNW) 1,685 9.1 -8.7°
Maximum altitude 05:10:51 28° 282° (WNW) 961 7.5 -7.9°
Drops below altitude 10° 05:14:00 10° 223° (SW) 1,696 8.9 -7.1°
Sets 05:16:17 0° 211° (SSW) 2,581 10.0 -6.6°
